When you browse on this site, cookies collect data to enhance your experience and personalize the content and advertising you see.
Visit our Privacy Policy to learn more. By continuing to use the site, you agree to this use of cookies and data.
  • In Lithuania
  • List of Countries
  • For 7 days
  • Water Temperature
  • Weather Map
  • Weather Widgets
  • user-avatar
    Login

    Hourly Weather Musajid

    Today, 7 June, Sunday

    Time Temperature Precipitation Wind Pressure Humidity
    00:00 +36°C° 0 mm 7 mps 749 mmHg 35%
    01:00 +36°C° 0 mm 7 mps 749 mmHg 36%
    02:00 +37°C° 0 mm 8 mps 749 mmHg 38%
    03:00 +35°C° 0 mm 8 mps 749 mmHg 40%
    04:00 +37°C° 0 mm 9 mps 749 mmHg 39%
    05:00 +37°C° 0 mm 9 mps 750 mmHg 37%
    06:00 +37°C° 0 mm 10 mps 750 mmHg 36%
    07:00 +40°C° 0 mm 10 mps 750 mmHg 29%
    08:00 +44°C° 0 mm 11 mps 750 mmHg 22%
    09:00 +47°C° 0 mm 12 mps 751 mmHg 14%
    10:00 +48°C° 0 mm 12 mps 751 mmHg 14%
    11:00 +49°C° 0 mm 11 mps 751 mmHg 13%
    12:00 +49°C° 0 mm 11 mps 751 mmHg 12%
    13:00 +49°C° 0 mm 11 mps 750 mmHg 12%
    14:00 +49°C° 0 mm 11 mps 750 mmHg 12%
    15:00 +49°C° 0 mm 11 mps 749 mmHg 12%
    16:00 +47°C° 0 mm 10 mps 749 mmHg 13%
    17:00 +45°C° 0 mm 9 mps 750 mmHg 13%
    18:00 +44°C° 0 mm 8 mps 750 mmHg 13%
    19:00 +41°C° 0 mm 7 mps 750 mmHg 16%
    20:00 +40°C° 0 mm 6 mps 750 mmHg 18%
    21:00 +37°C° 0 mm 5 mps 750 mmHg 21%
    22:00 +37°C° 0 mm 5 mps 750 mmHg 22%
    23:00 +36°C° 0 mm 5 mps 750 mmHg 23%

    Tomorrow, 8 June, Monday

    Time Temperature Precipitation Wind Pressure Humidity
    00:00 +36°C° 0 mm 5 mps 750 mmHg 23%
    01:00 +36°C° 0 mm 5 mps 749 mmHg 26%
    02:00 +35°C° 0 mm 5 mps 749 mmHg 28%
    03:00 +35°C° 0 mm 6 mps 749 mmHg 30%
    04:00 +35°C° 0 mm 6 mps 749 mmHg 34%
    05:00 +35°C° 0 mm 6 mps 749 mmHg 37%
    06:00 +35°C° 0 mm 6 mps 750 mmHg 41%
    07:00 +39°C° 0 mm 6 mps 750 mmHg 32%
    08:00 +42°C° 0 mm 6 mps 750 mmHg 23%
    09:00 +46°C° 0 mm 6 mps 751 mmHg 15%
    10:00 +47°C° 0 mm 6 mps 750 mmHg 13%
    11:00 +48°C° 0 mm 6 mps 750 mmHg 12%
    12:00 +49°C° 0 mm 6 mps 750 mmHg 11%
    13:00 +49°C° 0 mm 6 mps 750 mmHg 11%
    14:00 +49°C° 0 mm 7 mps 750 mmHg 12%
    15:00 +49°C° 0 mm 7 mps 749 mmHg 12%
    16:00 +47°C° 0 mm 6 mps 750 mmHg 14%
    17:00 +45°C° 0 mm 5 mps 750 mmHg 16%
    18:00 +42°C° 0 mm 5 mps 750 mmHg 19%
    19:00 +40°C° 0 mm 4 mps 750 mmHg 24%
    20:00 +37°C° 0 mm 2 mps 750 mmHg 30%
    21:00 +33°C° 0 mm 1 mps 750 mmHg 35%
    22:00 +33°C° 0 mm 1 mps 750 mmHg 33%
    23:00 +33°C° 0 mm 1 mps 750 mmHg 30%

    Day after tomorrow, 9 June, Tuesday

    Time Temperature Precipitation Wind Pressure Humidity
    00:00 +33°C° 0 mm 1 mps 750 mmHg 28%
    01:00 +33°C° 0 mm 1 mps 750 mmHg 26%
    02:00 +33°C° 0 mm 1 mps 749 mmHg 25%
    03:00 +32°C° 0 mm 2 mps 749 mmHg 24%
    04:00 +34°C° 0 mm 2 mps 750 mmHg 23%
    05:00 +35°C° 0 mm 3 mps 750 mmHg 21%
    06:00 +36°C° 0 mm 3 mps 751 mmHg 20%
    07:00 +38°C° 0 mm 3 mps 751 mmHg 18%
    08:00 +42°C° 0 mm 3 mps 752 mmHg 16%
    09:00 +44°C° 0 mm 3 mps 752 mmHg 14%
    10:00 +45°C° 0 mm 4 mps 752 mmHg 15%
    11:00 +45°C° 0 mm 4 mps 752 mmHg 15%
    12:00 +47°C° 0 mm 5 mps 751 mmHg 15%
    13:00 +46°C° 0 mm 5 mps 751 mmHg 19%
    14:00 +45°C° 0 mm 5 mps 751 mmHg 23%
    15:00 +44°C° 0 mm 6 mps 750 mmHg 27%
    16:00 +42°C° 0 mm 5 mps 750 mmHg 31%
    17:00 +40°C° 0 mm 5 mps 750 mmHg 36%
    18:00 +37°C° 0 mm 5 mps 750 mmHg 41%
    19:00 +36°C° 0 mm 4 mps 751 mmHg 44%
    20:00 +35°C° 0 mm 4 mps 751 mmHg 47%
    21:00 +34°C° 0 mm 3 mps 751 mmHg 50%
    22:00 +32°C° 0 mm 2 mps 751 mmHg 49%
    23:00 +32°C° 0 mm 2 mps 751 mmHg 48%

    10 June, Wednesday

    Time Temperature Precipitation Wind Pressure Humidity
    00:00 +31°C° 0 mm 1 mps 750 mmHg 47%
    01:00 +31°C° 0 mm 1 mps 750 mmHg 44%
    02:00 +31°C° 0 mm 2 mps 750 mmHg 42%
    03:00 +31°C° 0 mm 2 mps 749 mmHg 39%
    04:00 +32°C° 0 mm 2 mps 750 mmHg 39%
    05:00 +32°C° 0 mm 1 mps 750 mmHg 39%
    06:00 +33°C° 0 mm 1 mps 750 mmHg 39%
    07:00 +36°C° 0 mm 2 mps 751 mmHg 36%
    08:00 +37°C° 0 mm 3 mps 751 mmHg 32%
    09:00 +39°C° 0 mm 3 mps 751 mmHg 29%
    10:00 +40°C° 0 mm 3 mps 751 mmHg 27%
    11:00 +41°C° 0 mm 2 mps 751 mmHg 26%
    12:00 +41°C° 0 mm 2 mps 751 mmHg 24%
    13:00 +41°C° 0 mm 2 mps 751 mmHg 23%
    14:00 +43°C° 0 mm 3 mps 750 mmHg 22%
    15:00 +43°C° 0 mm 3 mps 750 mmHg 22%
    16:00 +40°C° 0 mm 3 mps 750 mmHg 24%
    17:00 +39°C° 0 mm 3 mps 750 mmHg 27%
    18:00 +38°C° 0 mm 3 mps 750 mmHg 30%
    19:00 +37°C° 0 mm 3 mps 750 mmHg 32%
    20:00 +36°C° 0 mm 3 mps 750 mmHg 34%
    21:00 +35°C° 0 mm 3 mps 750 mmHg 37%
    22:00 +35°C° 0 mm 3 mps 750 mmHg 36%
    23:00 +35°C° 0 mm 3 mps 750 mmHg 35%

    11 June, Thursday

    Time Temperature Precipitation Wind Pressure Humidity
    00:00 +35°C° 0 mm 3 mps 749 mmHg 34%
    01:00 +34°C° 0 mm 3 mps 749 mmHg 33%
    02:00 +34°C° 0 mm 2 mps 749 mmHg 32%
    03:00 +32°C° 0 mm 2 mps 748 mmHg 32%
    04:00 +33°C° 0 mm 1 mps 749 mmHg 31%
    05:00 +34°C° 0 mm 1 mps 749 mmHg 29%
    06:00 +34°C° 0 mm 1 mps 749 mmHg 28%
    07:00 +37°C° 0 mm 1 mps 749 mmHg 25%
    08:00 +40°C° 0 mm 1 mps 750 mmHg 22%
    09:00 +42°C° 0 mm 1 mps 750 mmHg 19%
    10:00 +43°C° 0 mm 1 mps 750 mmHg 18%
    11:00 +45°C° 0 mm 2 mps 750 mmHg 17%
    12:00 +46°C° 0 mm 3 mps 749 mmHg 16%
    13:00 +45°C° 0 mm 3 mps 749 mmHg 16%
    14:00 +45°C° 0 mm 4 mps 748 mmHg 17%
    15:00 +45°C° 0 mm 4 mps 748 mmHg 17%
    16:00 +43°C° 0 mm 4 mps 748 mmHg 20%
    17:00 +41°C° 0 mm 4 mps 748 mmHg 24%
    18:00 +39°C° 0 mm 3 mps 748 mmHg 28%
    19:00 +38°C° 0 mm 3 mps 748 mmHg 29%
    20:00 +37°C° 0 mm 3 mps 749 mmHg 30%
    21:00 +36°C° 0 mm 3 mps 749 mmHg 31%
    22:00 +36°C° 0 mm 3 mps 749 mmHg 30%
    23:00 +36°C° 0 mm 3 mps 748 mmHg 30%

    12 June, Friday

    Time Temperature Precipitation Wind Pressure Humidity
    00:00 +35°C° 0 mm 2 mps 748 mmHg 29%
    01:00 +35°C° 0 mm 2 mps 748 mmHg 29%
    02:00 +35°C° 0 mm 2 mps 748 mmHg 29%
    03:00 +34°C° 0 mm 2 mps 747 mmHg 29%
    04:00 +35°C° 0 mm 2 mps 748 mmHg 28%
    05:00 +36°C° 0 mm 2 mps 748 mmHg 27%
    06:00 +37°C° 0 mm 3 mps 748 mmHg 25%
    07:00 +39°C° 0 mm 3 mps 749 mmHg 24%
    08:00 +42°C° 0 mm 4 mps 749 mmHg 22%
    09:00 +44°C° 0 mm 4 mps 750 mmHg 21%
    10:00 +45°C° 0 mm 3 mps 749 mmHg 19%
    11:00 +46°C° 0 mm 3 mps 749 mmHg 17%
    12:00 +47°C° 0 mm 2 mps 749 mmHg 15%
    13:00 +47°C° 0 mm 3 mps 748 mmHg 15%
    14:00 +48°C° 0 mm 4 mps 748 mmHg 15%
    15:00 +47°C° 0 mm 5 mps 748 mmHg 15%
    16:00 +44°C° 0 mm 4 mps 748 mmHg 19%
    17:00 +42°C° 0 mm 3 mps 748 mmHg 23%
    18:00 +39°C° 0 mm 3 mps 747 mmHg 28%
    19:00 +39°C° 0 mm 3 mps 748 mmHg 27%
    20:00 +38°C° 0 mm 3 mps 748 mmHg 26%
    21:00 +38°C° 0 mm 3 mps 748 mmHg 26%
    22:00 +38°C° 0 mm 3 mps 748 mmHg 26%
    23:00 +38°C° 0 mm 3 mps 748 mmHg 25%
    Show more